默认 日期 大小 文件数 浏览量 最新下载 xml
monkeys磁力链接相关资源由用户搜索指令自动获取,结果来源于网络,本站不存储任何资料,亦不承担任何责任,请于24小时内删除,搜索到3101个磁力,用时3ms。
    ... .RusEng.LostFilm.avi": 579661824, "12.Monkeys.S01E02.RusEng.LostFilm.avi": 577243136 ... , "12.Monkeys.S01E03.RusEng.LostFilm.avi": 577200128 ... , "12.Monkeys.S01E04.RusEng.LostFilm.avi": 577425408 ...
创建时间: 2018-11-16 17:42:32 大小:19.55 GB 文件数量:36 热度:6 最近下载:2023-04-15 23:30:02
    {"NH.png": 289174, "info.txt": 425, "Twelve Monkeys 1995 BDRip 1080p HEVC ITA ENG AC3-NAHOM1.mkv": 2542273107, "Twelve Monkeys 1995 BDRip 1080p HEVC ITA ENG AC3-NAHOM2.mkv": 1274098678}
创建时间: 2018-11-16 18:03:07 大小:3.55 GB 文件数量:4 热度:5 最近下载:2024-12-08 11:55:03
    ... .RusEng.LostFilm.avi": 579661824, "12.Monkeys.S01E02.RusEng.LostFilm.avi": 577243136 ... , "12.Monkeys.S01E03.RusEng.LostFilm.avi": 577200128 ... .RusEng.LostFilm.avi": 575819776, "12.Monkeys.S01E13.RusEng.LostFilm.avi": 576450560}
创建时间: 2018-11-16 19:22:34 大小:6.99 GB 文件数量:13 热度:4 最近下载:2023-04-16 00:10:08
    ... Media.avi": 381870090, "12.Monkeys.S04E02.WEBRip.Profix.Media.avi ... ": 321864860, "12.Monkeys.S04E03.WEBRip.Profix.Media.avi ... ": 298390024, "12.Monkeys.S04E04.WEBRip.Profix.Media.avi ... ": 448950162, "12.Monkeys.S04E05.WEBRip.Profix.Media.avi ...
创建时间: 2018-11-16 19:42:09 大小:3.77 GB 文件数量:11 热度:6 最近下载:2025-02-09 10:23:05
    {"RARBG.txt": 30, "12.Monkeys.S04E08.720p.HDTV.x264-KILLERS.mkv": 962748762, "12.monkeys.s04e08.720p.hdtv.x264-killers.nfo": 10872}
创建时间: 2018-11-16 20:26:00 大小:918.16 MB 文件数量:3 热度:4 最近下载:2023-04-16 00:50:03
    {"cover.jpg": 2321516, "10 - Batphone.wav": 47914444, "05 - Golden Trunks.wav": 30651360, "01 - Star Treatment.wav": 62562288, "03 - American Sports.wav": 27883670, "08 - Science Fiction.wav": 32795658, "11 - The Ultracheese.wav": 38401912, "06 - Four Out ...
创建时间: 2018-11-16 21:10:10 大小:415.6 MB 文件数量:12 热度:20 最近下载:2025-08-04 15:54:06
    {"RARBG.txt": 30, "12.Monkeys.S04E09.One.Minute.More.720p.AMZN.WEB-DL.DDP5.1.H.264-NTG.mkv": 672329447}
创建时间: 2018-11-16 21:46:54 大小:641.18 MB 文件数量:2 热度:6 最近下载:2023-04-16 01:40:03
    {"CD.jpg": 1686249, "Cover.jpg": 1257978, "02. R U Mine.mp3": 8091565, "04. Arabella.mp3": 8316217, "08. Fireside.mp3": 7262960, "07. Mad Sounds.mp3": 8625509, "11. Knee Socks.mp3": 10325559, "05. I Want It All.mp3": 7396712, "10. Snap Out of It.mp3": ...
创建时间: 2018-11-16 22:01:15 大小:98.69 MB 文件数量:15 热度:8 最近下载:2023-04-16 01:50:04
    ... Media.avi": 381870090, "12.Monkeys.S04E02.WEBRip.Profix.Media.avi ... ": 321864860, "12.Monkeys.S04E03.WEBRip.Profix.Media.avi ... ": 298390024, "12.Monkeys.S04E04.WEBRip.Profix.Media.avi ... ": 448950162, "12.Monkeys.S04E05.WEBRip.Profix.Media.avi ...
创建时间: 2018-11-16 23:01:19 大小:3.34 GB 文件数量:10 热度:5 最近下载:2023-04-16 02:30:07
    ... }, "foo_dr.txt": 1643, "Arctic Monkeys - Favourite Worst Nightmare (WIGCD188J, HSE ... }, "foo_dr.txt": 1038, "Arctic Monkeys - Fluorescent Adolescent (RUG261CDJ, HSE-10050 ... HSE-10050).flac": 84074774, "Arctic Monkeys - Fluorescent Adolescent (RUG261CDJ, HSE- ...
创建时间: 2018-11-16 23:38:07 大小:3.14 GB 文件数量:164 热度:8 最近下载:2025-01-12 06:46:05
    {"12.Monkeys.S02E08.HDTV.XviD-FUM[ettv].avi": 365821360, "Torrent-Downloaded-from-ExtraTorrent.cc.txt": 288}
创建时间: 2018-11-17 01:16:59 大小:348.87 MB 文件数量:2 热度:7 最近下载:2023-04-16 03:20:09
    {"Sample": {"sample-12.monkeys.s02e06.proper.hdtv.x264-killers.mkv": 7843012}, "12.Monkeys.S02E06.PROPER.HDTV.x264-KILLERS.mkv": 228264271, "12.monkeys.s02e06.proper.hdtv.x264-killers.nfo": 11012}
创建时间: 2018-11-17 02:06:32 大小:225.18 MB 文件数量:3 热度:7 最近下载:2023-04-16 03:30:09
    {"RARBG.txt": 30, "12.Monkeys.S04E01.The.End.720p.AMZN.WEB-DL.DDP5.1.H.264-NTG.mkv": 1213196224}
创建时间: 2018-11-17 03:55:44 大小:1.13 GB 文件数量:2 热度:7 最近下载:2023-04-16 03:50:09
    {"To keep us going please read.txt": 161, "12.Monkeys.S03E08.HDTV.x264-SVA[ettv].mkv": 238417259}
创建时间: 2018-11-17 04:38:24 大小:227.37 MB 文件数量:2 热度:7 最近下载:2023-04-16 04:00:04
    {"To keep us going please read.txt": 161, "12.Monkeys.S03E05.REPACK.HDTV.x264-KILLERS[ettv].mkv": 239127564}
创建时间: 2018-11-17 05:35:52 大小:228.05 MB 文件数量:2 热度:6 最近下载:2023-04-16 04:40:07
    ... LostFilm.TV.mp4": 1398780678, "12.Monkeys.S03E02.720p.WEB.rus.LostFilm ... .TV.mp4": 1394850952, "12.Monkeys.S03E03.720p.WEB.rus.LostFilm ... .TV.mp4": 1365742698, "12.Monkeys.S03E04.720p.WEB.rus.LostFilm ... .TV.mp4": 1384516579, "12.Monkeys.S03E05.720p.WEB.rus.LostFilm ...
创建时间: 2018-11-17 06:39:32 大小:10.31 GB 文件数量:8 热度:6 最近下载:2023-04-16 05:10:01
    ... .Speed.cd.txt": 97, "12.Monkeys.S04E03.45.RPM.1080p.AMZN ... .264-NTG.mkv": 3091529944, "12.Monkeys.S04E03.45.RPM.1080p.AMZN ...
创建时间: 2018-11-17 07:05:30 大小:2.88 GB 文件数量:7 热度:10 最近下载:2025-08-10 08:55:01
    ... the Dancefloor.flac": 23870403, "Arctic Monkeys - I Bet You Look Good ...
创建时间: 2018-11-17 08:08:15 大小:77.73 MB 文件数量:7 热度:9 最近下载:2025-08-04 01:47:02
    {"12.Monkeys.S04E01.1080p.WEBRip.Profix.Media.mkv": 2079654667, "12.Monkeys.S04E02.1080p.WEBRip.Profix.Media.mkv": 2082721478, "12.Monkeys.S04E03.1080p.WEBRip.Profix.Media.mkv": 2065966829}
创建时间: 2018-11-17 08:56:58 大小:5.8 GB 文件数量:3 热度:8 最近下载:2025-02-09 10:29:03
    {"02 - R U Mine.mp3": 8089545, "04 - Arabella.mp3": 8325691, "08 - Fireside.mp3": 7275569, "07 - Mad Sounds.mp3": 8633938, "11 - Knee Socks.mp3": 10220094, "05 - I Want It All.mp3": 7375884, "10 - Snap Out of It.mp3": 7737421, "01 - Do I Wanna Know.mp3": ...
创建时间: 2018-11-17 14:05:31 大小:136.59 MB 文件数量:17 热度:4 最近下载:2023-04-16 07:00:03